ウィルタネン彗星

46P/Wirtanen (2018)

English version
Home page
Updated on April 4, 2021

---------------------------------------------------------------------

・ プロフィール

・ 写真集

・ 軌道要素

Epoch 2018 Dec. 28.0 TT = JDT 2458480.5                                         
T 2018 Dec. 12.94132 TT                                 Rudenko                 
q   1.0553678            (2000.0)            P               Q                  
n   0.18118350     Peri.  356.35373     +0.19786695     -0.95925755             
a   3.0930738      Node    82.15689     +0.90441402     +0.09931713             
e   0.6587964      Incl.   11.74647     +0.37799994     +0.26450152             
P   5.44                                                                        
From 7519 observations 1967 Nov. 24-2019 July 3, mean residual 0".8.            
     Nongravitational parameters A1 = +0.36, A2 = -0.1461.                      

・ 星図

・ 光度変化

        m1 = 14.5 + 5 logΔ +  8.0 log r          [    ,-150]  (              〜2018年 7月15日)
        m1 =  8.0 + 5 logΔ + 27.0 log r(t - 12)  [-150, 180]  (2018年 7月15日〜2019年 6月10日)
        m1 = 14.5 + 5 logΔ +  8.0 log r          [ 180,    ]  (2019年 6月10日〜              )

---------------------------------------------------------------------

軌道要素はM.P.E.C. 2021-F20に掲載されたものです。
星図はステラナビゲータ Ver.8 (アストロアーツ) で作成したものです。
光度グラフはComet for Windowsで作成したものです。

---------------------------------------------------------------------

Copyright(C) Seiichi Yoshida (comet@aerith.net). All rights reserved.